TimeEDT,TemperatureF,Dew PointF,Humidity,Sea Level PressureIn,VisibilityMPH,Wind Direction,Wind SpeedMPH,Gust SpeedMPH,PrecipitationIn,Events,Conditions,WindDirDegrees,DateUTC
12:10 AM,44.6,10.4,25,30.05,10.0,NW,6.9,-,N/A,,Clear,320,2013-04-06 04:10:00
12:30 AM,44.6,10.4,25,30.06,10.0,NW,3.5,-,N/A,,Clear,320,2013-04-06 04:30:00
12:50 AM,42.8,12.2,29,30.07,10.0,NNW,5.8,-,N/A,,Clear,330,2013-04-06 04:50:00
1:10 AM,42.8,12.2,29,30.08,10.0,North,3.5,-,N/A,,Clear,350,2013-04-06 05:10:00
1:30 AM,42.8,12.2,29,30.09,10.0,NNW,3.5,-,N/A,,Clear,330,2013-04-06 05:30:00
1:50 AM,41.0,14.0,33,30.10,10.0,NNW,5.8,-,N/A,,Clear,330,2013-04-06 05:50:00
2:10 AM,39.2,14.0,36,30.11,10.0,NNW,5.8,-,N/A,,Scattered Clouds,340,2013-04-06 06:10:00
2:30 AM,39.2,17.6,42,30.12,10.0,NNW,5.8,-,N/A,,Scattered Clouds,330,2013-04-06 06:30:00
2:50 AM,37.4,17.6,45,30.12,10.0,NNW,5.8,-,N/A,,Clear,340,2013-04-06 06:50:00
3:10 AM,37.4,19.4,48,30.12,10.0,NNW,6.9,-,N/A,,Scattered Clouds,340,2013-04-06 07:10:00
3:30 AM,37.4,19.4,48,30.13,10.0,North,5.8,-,N/A,,Scattered Clouds,360,2013-04-06 07:30:00
3:50 AM,37.4,17.6,45,30.14,10.0,North,8.1,-,N/A,,Scattered Clouds,350,2013-04-06 07:50:00
4:10 AM,35.6,17.6,48,30.15,10.0,North,5.8,-,N/A,,Scattered Clouds,350,2013-04-06 08:10:00
4:30 AM,35.6,17.6,48,30.15,10.0,NNW,3.5,-,N/A,,Scattered Clouds,340,2013-04-06 08:30:00
4:50 AM,35.6,19.4,52,30.16,10.0,NNW,3.5,-,N/A,,Scattered Clouds,340,2013-04-06 08:50:00
5:10 AM,35.6,17.6,48,30.16,10.0,Calm,Calm,-,N/A,,Scattered Clouds,0,2013-04-06 09:10:00
5:30 AM,35.6,19.4,52,30.17,10.0,Calm,Calm,-,N/A,,Scattered Clouds,0,2013-04-06 09:30:00
5:50 AM,33.8,17.6,52,30.18,10.0,Calm,Calm,-,N/A,,Scattered Clouds,0,2013-04-06 09:50:00
6:10 AM,33.8,17.6,52,30.20,10.0,Calm,Calm,-,N/A,,Scattered Clouds,0,2013-04-06 10:10:00
6:50 AM,32.0,19.4,60,30.23,10.0,Calm,Calm,-,N/A,,Scattered Clouds,0,2013-04-06 10:50:00
7:10 AM,32.0,19.4,60,30.25,10.0,Calm,Calm,-,N/A,,Clear,0,2013-04-06 11:10:00
7:30 AM,33.8,19.4,56,30.26,10.0,Calm,Calm,-,N/A,,Clear,0,2013-04-06 11:30:00
7:50 AM,33.8,21.2,60,30.27,10.0,Calm,Calm,-,N/A,,Clear,0,2013-04-06 11:50:00
8:10 AM,35.6,19.4,52,30.27,10.0,North,4.6,-,N/A,,Clear,350,2013-04-06 12:10:00
8:30 AM,35.6,19.4,52,30.28,10.0,North,8.1,-,N/A,,Clear,10,2013-04-06 12:30:00
8:50 AM,37.4,21.2,52,30.28,10.0,NE,10.4,-,N/A,,Clear,50,2013-04-06 12:50:00
9:10 AM,37.4,21.2,52,30.29,10.0,NE,11.5,-,N/A,,Clear,40,2013-04-06 13:10:00
9:30 AM,37.4,21.2,52,30.30,10.0,North,5.8,-,N/A,,Clear,10,2013-04-06 13:30:00
9:50 AM,39.2,19.4,45,30.30,10.0,NE,11.5,-,N/A,,Clear,40,2013-04-06 13:50:00
10:10 AM,39.2,15.8,39,30.31,10.0,NNE,6.9,-,N/A,,Clear,30,2013-04-06 14:10:00
10:30 AM,39.2,12.2,33,30.32,10.0,North,6.9,-,N/A,,Clear,350,2013-04-06 14:30:00
10:50 AM,39.2,6.8,26,30.32,10.0,North,6.9,-,N/A,,Clear,360,2013-04-06 14:50:00
11:10 AM,41.0,5.0,23,30.32,10.0,Calm,Calm,-,N/A,,Clear,0,2013-04-06 15:10:00
11:30 AM,41.0,8.6,26,30.32,10.0,NE,5.8,-,N/A,,Clear,40,2013-04-06 15:30:00
11:50 AM,42.8,8.6,25,30.32,10.0,North,3.5,-,N/A,,Clear,350,2013-04-06 15:50:00
12:10 PM,42.8,8.6,25,30.32,10.0,NE,8.1,-,N/A,,Clear,50,2013-04-06 16:10:00
12:30 PM,44.6,10.4,25,30.31,10.0,Calm,Calm,-,N/A,,Clear,0,2013-04-06 16:30:00
12:50 PM,44.6,6.8,21,30.31,10.0,NE,5.8,-,N/A,,Clear,50,2013-04-06 16:50:00
1:10 PM,46.4,6.8,20,30.30,10.0,East,5.8,-,N/A,,Clear,80,2013-04-06 17:10:00
1:30 PM,46.4,5.0,18,30.30,10.0,NE,3.5,-,N/A,,Clear,40,2013-04-06 17:30:00
1:50 PM,48.2,6.8,19,30.30,10.0,Calm,Calm,-,N/A,,Clear,0,2013-04-06 17:50:00
2:10 PM,48.2,10.4,22,30.30,10.0,ENE,4.6,-,N/A,,Clear,70,2013-04-06 18:10:00
2:30 PM,51.8,5.0,15,30.29,10.0,SSW,4.6,-,N/A,,Clear,200,2013-04-06 18:30:00
2:50 PM,51.8,5.0,15,30.28,10.0,SSE,4.6,-,N/A,,Clear,160,2013-04-06 18:50:00
3:10 PM,51.8,6.8,16,30.27,10.0,Calm,Calm,-,N/A,,Clear,0,2013-04-06 19:10:00
3:30 PM,53.6,3.2,13,30.26,10.0,Calm,Calm,-,N/A,,Clear,0,2013-04-06 19:30:00
3:50 PM,53.6,6.8,15,30.25,10.0,South,6.9,-,N/A,,Clear,170,2013-04-06 19:50:00
4:10 PM,53.6,3.2,13,30.25,10.0,Calm,Calm,-,N/A,,Clear,0,2013-04-06 20:10:00
4:30 PM,53.6,3.2,13,30.24,10.0,East,3.5,-,N/A,,Clear,100,2013-04-06 20:30:00
4:50 PM,53.6,3.2,13,30.24,10.0,East,4.6,-,N/A,,Clear,80,2013-04-06 20:50:00
5:10 PM,57.2,3.2,11,30.24,10.0,South,5.8,-,N/A,,Clear,170,2013-04-06 21:10:00
5:30 PM,55.4,-0.4,10,30.24,10.0,Calm,Calm,-,N/A,,Clear,0,2013-04-06 21:30:00
5:50 PM,55.4,1.4,11,30.24,10.0,SSE,4.6,-,N/A,,Clear,160,2013-04-06 21:50:00
6:10 PM,55.4,3.2,12,30.24,10.0,SSE,6.9,-,N/A,,Clear,160,2013-04-06 22:10:00
6:30 PM,55.4,5.0,13,30.24,10.0,SSE,4.6,-,N/A,,Clear,160,2013-04-06 22:30:00
6:50 PM,53.6,6.8,15,30.25,10.0,South,4.6,-,N/A,,Clear,180,2013-04-06 22:50:00
7:10 PM,53.6,8.6,16,30.25,10.0,South,4.6,-,N/A,,Clear,170,2013-04-06 23:10:00
7:30 PM,51.8,10.4,19,30.25,10.0,South,10.4,-,N/A,,Clear,170,2013-04-06 23:30:00
7:50 PM,50.0,12.2,22,30.25,10.0,South,10.4,-,N/A,,Clear,170,2013-04-06 23:50:00
8:10 PM,48.2,14.0,25,30.25,10.0,SSE,9.2,-,N/A,,Clear,150,2013-04-07 00:10:00
8:30 PM,48.2,15.8,27,30.25,10.0,SSE,10.4,-,N/A,,Clear,150,2013-04-07 00:30:00
8:50 PM,46.4,14.0,27,30.26,10.0,SE,8.1,-,N/A,,Clear,140,2013-04-07 00:50:00
9:10 PM,46.4,14.0,27,30.26,10.0,SE,9.2,-,N/A,,Clear,140,2013-04-07 01:10:00
9:30 PM,46.4,15.8,29,30.26,10.0,SE,9.2,-,N/A,,Clear,140,2013-04-07 01:30:00
9:50 PM,44.6,15.8,31,30.26,10.0,SSE,8.1,-,N/A,,Clear,150,2013-04-07 01:50:00
10:10 PM,44.6,15.8,31,30.26,10.0,SSE,5.8,-,N/A,,Clear,150,2013-04-07 02:10:00
10:30 PM,44.6,15.8,31,30.26,10.0,SSE,5.8,-,N/A,,Clear,150,2013-04-07 02:30:00
10:50 PM,44.6,12.2,27,30.25,10.0,SSE,8.1,-,N/A,,Clear,160,2013-04-07 02:50:00
11:10 PM,44.6,12.2,27,30.25,10.0,SSE,8.1,-,N/A,,Clear,150,2013-04-07 03:10:00
11:30 PM,44.6,15.8,31,30.25,10.0,SSE,8.1,-,N/A,,Scattered Clouds,160,2013-04-07 03:30:00
11:50 PM,44.6,17.6,34,30.25,10.0,SSE,9.2,-,N/A,,Scattered Clouds,160,2013-04-07 03:50:00